Location: ????????
(38.4362°N, 22.8767°E)
Time: 20:05:13
(UTC+00:00)

Cosmos 494 Rocket - Pass Details

Date: 23 April 2024
Orbit: 740 x 768 km, 74.1° (Epoch: 26 May)

Event Time Altitude Azimuth Distance (km) Brightness Sun altitude
Exits shadow 01:22:24 64° 280° (W) 829 3.9 -24.5°
Maximum altitude 01:22:33 64° 290° (WNW) 827 3.9 -24.5°
Drops below altitude 10° 01:27:38 10° 12° (NNE) 2,262 7.1 -23.7°
Sets 01:30:01 0° 16° (NNE) 3,187 8.1 -23.4°
